Location: Iesi
(43.5167°N, 13.2333°E)
Time: 02:59:00
(UTC+00:00)

Cosmos 2219 Rocket - Pass Details

Date: 08 August 2020
Orbit: 826 x 848 km, 71.0° (Epoch: 27 September)

Event Time Altitude Azimuth Distance (km) Brightness Sun altitude
Rises 23:31:25 0° 332° (NNW) 3,415 6.2 -30.5°
Reaches altitude 10° 23:33:53 10° 330° (NNW) 2,477 5.2 -30.5°
Enters shadow 23:38:17 52° 307° (NW) 1,045 2.7 -30.4°
